User: anonymous   Login
Location: Valdosta
(30.8330°N, 83.2790°W)
Time: 02:09:05
(UTC-04:00)
Language:

Oscar 19 - Orbit

View from above orbital plane
View from above orbital plane
View from above satellite
View from above satellite

Ground track
Ground track

The orbit data is extracted from the following two-line orbital elements,

1 20442U 90005G   15210.80360174  .00000017  00000-0  22058-4 0  9993
2 20442 098.5123 145.8042 0012405 027.7918 332.3926 14.32750393333040
Epoch (UTC): 29 July 2015 19:17:11
Eccentricity: 0.0012405
inclination: 98.5123°
perigee height: 773 km
apogee height: 791 km
right ascension of ascending node: 145.8042°
argument of perigee: 27.7918°
revolutions per day: 14.32750393
mean anomaly at epoch: 332.3926°
orbit number at epoch: 33304

The dashed part of the orbit path shows where the satellite is in the earth's shadow,  

DLR